SV2BZQ-2 Thessalonik GR current weather conditions

sailwx.info

Wind from 178 at 1 knots gusting 5

Air temperature 32.2° C
Dewpoint 22.0° C

Last reported at 2017-Jun-28 08:09 UTC.
Time now 2017-Jun-28 08:52 UTC

Location: N 40°41' E 022°51'.
View on Google Maps.

See reports from other nearby stations

  
Tides and Currents Weather Stations Pressure Air Temp Water Temp Dewpoint Dewpoint Depression Visibility Wind Speed Wind Dir Waves Ship Positions
date/time (UTC)wind fromknots sea level pressurealtimeterstation pressurevisibilityair tempwater tempwave heightnotes
2017-Jun-28 08:09 178 1 gusting 5 32.2
2017-Jun-28 08:04 179 2 gusting 7 32.2
2017-Jun-28 08:00 147 1 gusting 7 32.2
2017-Jun-28 07:54 150 1 gusting 4 31.7
2017-Jun-28 07:49 140 1 gusting 5 31.7
2017-Jun-28 07:44 168 1 gusting 5 31.7
2017-Jun-28 07:39 260 2 gusting 5 31.7
2017-Jun-28 07:34 263 2 gusting 6 31.7
2017-Jun-28 07:29 223 2 gusting 6 31.7
2017-Jun-28 07:24 257 1 gusting 6 32.2
2017-Jun-28 07:19 173 1 gusting 4 31.7
2017-Jun-28 07:14 173 1 gusting 4 31.7
2017-Jun-28 07:09 202 1 gusting 4 31.7
2017-Jun-28 07:04 142 0 gusting 2 31.7
2017-Jun-28 06:59 140 1 gusting 3 31.1
2017-Jun-28 06:54 140 1 gusting 3 31.1
2017-Jun-28 06:49 214 1 gusting 3 30.6
2017-Jun-28 06:45 205 0 gusting 3 30.6
2017-Jun-28 06:39 203 0 gusting 3 30.6
2017-Jun-28 06:34 203 0 gusting 3 30.6
2017-Jun-28 06:29 203 1 gusting 4 30.0
2017-Jun-28 06:24 205 1 gusting 4 30.0
2017-Jun-28 06:18 203 0 gusting 3 30.0
2017-Jun-28 06:14 204 0 gusting 2 29.4
2017-Jun-28 06:08 204 29.4
2017-Jun-28 06:04 204 28.9
2017-Jun-28 05:58 204 0 gusting 1 28.3
2017-Jun-28 05:54 204 0 gusting 1 28.3
2017-Jun-28 05:50 204 27.8
2017-Jun-28 05:43 290 27.2
2017-Jun-28 05:39 290 27.2
2017-Jun-28 05:33 290 0 gusting 2 26.7
2017-Jun-28 05:29 290 26.7
2017-Jun-28 05:23 290 0 gusting 2 26.1
2017-Jun-28 05:19 290 0 gusting 2 26.1
2017-Jun-28 05:13 291 25.6
2017-Jun-28 05:09 291 25.6
2017-Jun-28 05:03 291 25.0
2017-Jun-28 04:59 291 25.0
2017-Jun-28 04:53 291 0 gusting 1 24.4
2017-Jun-28 04:49 291 0 gusting 3 24.4
2017-Jun-28 04:45 291 0 gusting 3 24.4
2017-Jun-28 04:39 291 0 gusting 1 24.4
2017-Jun-28 04:35 291 0 gusting 1 23.9
2017-Jun-28 04:29 291 23.9
2017-Jun-28 04:24 291 23.9
2017-Jun-28 04:18 291 23.9
2017-Jun-28 04:15 291 23.3
2017-Jun-28 04:09 291 23.3
2017-Jun-28 04:04 292 0 gusting 2 23.3
2017-Jun-28 04:00 291 23.3
2017-Jun-28 03:54 290 23.3
2017-Jun-28 03:48 296 23.3
2017-Jun-28 03:44 296 23.3
2017-Jun-28 03:38 325 23.3
2017-Jun-28 03:34 325 23.9
2017-Jun-28 03:29 327 23.3
2017-Jun-28 03:24 328 23.3
2017-Jun-28 03:18 327 23.3
2017-Jun-28 03:14 327 23.9
2017-Jun-28 03:08 327 23.9
2017-Jun-28 03:04 328 23.9
2017-Jun-28 03:00 328 23.9
2017-Jun-28 02:54 328 0 gusting 3 23.9
2017-Jun-28 02:49 328 0 gusting 4 23.9
2017-Jun-28 02:43 328 1 gusting 4 23.9
2017-Jun-28 02:39 319 1 gusting 6 23.9
2017-Jun-28 02:33 286 1 gusting 6 23.9
2017-Jun-28 02:29 297 0 gusting 6 23.9
2017-Jun-28 02:23 292 24.4
2017-Jun-28 02:19 296 24.4
2017-Jun-28 02:13 307 24.4
2017-Jun-28 02:09 307 24.4
2017-Jun-28 02:03 307 23.9
2017-Jun-28 01:59 307 23.9
2017-Jun-28 01:55 307 23.9
2017-Jun-28 01:48 307 23.9
2017-Jun-28 01:44 308 24.4
2017-Jun-28 01:38 307 0 gusting 3 24.4
2017-Jun-28 01:34 304 24.4
2017-Jun-28 01:28 306 24.4
2017-Jun-28 01:24 306 24.4
2017-Jun-28 01:18 306 24.4
2017-Jun-28 01:14 309 24.4
2017-Jun-28 01:10 309 24.4
2017-Jun-28 01:04 309 24.4
2017-Jun-28 01:00 309 24.4
2017-Jun-28 00:53 312 0 gusting 3 24.4
2017-Jun-28 00:49 316 0 gusting 3 24.4
2017-Jun-28 00:43 304 0 gusting 4 24.4
2017-Jun-28 00:39 296 0 gusting 4 24.4
2017-Jun-28 00:33 295 0 gusting 3 25.0
2017-Jun-28 00:29 292 0 gusting 3 25.0
2017-Jun-28 00:25 284 25.0
2017-Jun-28 00:19 285 25.6
2017-Jun-28 00:13 280 0 gusting 4 25.6
2017-Jun-28 00:10 279 0 gusting 4 25.6
2017-Jun-28 00:03 206 26.1
2017-Jun-27 23:59 206 26.1
2017-Jun-27 23:55 206 25.6
2017-Jun-27 23:49 205 26.1
2017-Jun-27 23:45 200 26.1
2017-Jun-27 23:39 200 26.1
2017-Jun-27 23:34 201 26.1
2017-Jun-27 23:28 200 26.7
2017-Jun-27 23:24 124 26.7
2017-Jun-27 23:18 123 26.7
2017-Jun-27 23:14 124 26.7
2017-Jun-27 23:09 217 26.1
2017-Jun-27 23:04 219 26.7
2017-Jun-27 23:00 219 26.7
2017-Jun-27 22:54 219 26.7
2017-Jun-27 22:49 219 26.7
2017-Jun-27 22:43 219 27.2
2017-Jun-27 22:39 219 27.2
2017-Jun-27 22:33 219 27.2
2017-Jun-27 22:29 219 27.2
2017-Jun-27 22:25 142 27.8
2017-Jun-27 22:18 142 27.8
2017-Jun-27 22:14 143 27.8
2017-Jun-27 22:08 142 27.8
2017-Jun-27 22:04 142 27.8
2017-Jun-27 21:58 142 27.8
2017-Jun-27 21:54 143 27.8
2017-Jun-27 21:50 142 27.8
2017-Jun-27 21:43 142 27.8
2017-Jun-27 21:39 143 27.8
2017-Jun-27 21:33 142 27.8
2017-Jun-27 21:29 143 27.8
2017-Jun-27 21:23 142 27.8
2017-Jun-27 21:19 142 27.8
2017-Jun-27 21:15 142 27.8
2017-Jun-27 21:08 142 27.8
2017-Jun-27 21:04 142 27.8
2017-Jun-27 20:58 143 27.8
2017-Jun-27 20:54 142 27.8
2017-Jun-27 20:50 142 28.3
2017-Jun-27 20:44 142 28.3
2017-Jun-27 20:39 142 28.3
2017-Jun-27 20:32 142 28.3
2017-Jun-27 20:29 142 28.3
2017-Jun-27 20:23 142 27.8
2017-Jun-27 20:19 142 28.3
2017-Jun-27 20:14 142 28.3
2017-Jun-27 20:10 142 27.8
2017-Jun-27 20:05 142 28.3
2017-Jun-27 19:57 142 27.8
2017-Jun-27 19:54 142 28.3
2017-Jun-27 19:48 139 28.3
2017-Jun-27 19:44 140 28.3
2017-Jun-27 19:39 138 28.3
2017-Jun-27 19:32 138 28.3
2017-Jun-27 19:27 139 28.3
2017-Jun-27 19:23 139 28.3
2017-Jun-27 19:15 139 28.9
2017-Jun-27 19:14 139 28.9
2017-Jun-27 19:10 139 28.3
2017-Jun-27 19:02 140 28.9
2017-Jun-27 18:59 140 28.9
2017-Jun-27 18:53 139 28.9
2017-Jun-27 18:49 150 28.9
2017-Jun-27 18:42 136 29.4
2017-Jun-27 18:39 136 29.4
2017-Jun-27 18:33 150 29.4
2017-Jun-27 18:29 153 29.4
2017-Jun-27 18:24 144 29.4
2017-Jun-27 18:13 157 30.0
2017-Jun-27 18:08 157 0 gusting 2 30.0
2017-Jun-27 18:02 155 0 gusting 4 30.0
2017-Jun-27 17:58 155 0 gusting 4 30.0
2017-Jun-27 17:52 157 0 gusting 2 30.0
2017-Jun-27 17:49 172 30.6
2017-Jun-27 17:44 172 1 gusting 4 30.6
2017-Jun-27 17:37 166 1 gusting 4 30.6
2017-Jun-27 17:33 178 0 gusting 3 30.6
2017-Jun-27 17:27 182 0 gusting 3 30.6
2017-Jun-27 17:24 186 31.1
2017-Jun-27 17:18 172 0 gusting 1 31.1
2017-Jun-27 17:14 172 1 gusting 2 30.6
2017-Jun-27 17:10 172 1 gusting 6 31.1
2017-Jun-27 17:02 190 1 gusting 6 31.1
2017-Jun-27 16:57 179 1 gusting 6 31.1
2017-Jun-27 16:53 178 2 gusting 6 31.1
2017-Jun-27 16:44 202 2 gusting 7 31.7
2017-Jun-27 16:39 159 2 gusting 7 31.1
2017-Jun-27 16:32 198 2 gusting 5 31.7
2017-Jun-27 16:29 176 2 gusting 7 31.7
2017-Jun-27 16:22 186 3 gusting 7 31.7
2017-Jun-27 16:18 194 1 gusting 5 31.7
2017-Jun-27 16:14 161 2 gusting 6 31.7
2017-Jun-27 16:08 196 2 gusting 6 31.7
2017-Jun-27 16:04 145 3 gusting 13 32.2
2017-Jun-27 15:59 194 3 gusting 12 32.2
2017-Jun-27 15:53 177 3 gusting 12 32.2
2017-Jun-27 15:49 184 2 gusting 8 32.2
2017-Jun-27 15:42 180 1 gusting 6 32.2
2017-Jun-27 15:39 192 3 gusting 9 32.2
2017-Jun-27 15:33 161 4 gusting 8 32.2
2017-Jun-27 15:26 167 4 gusting 10 32.2
2017-Jun-27 15:24 198 4 gusting 10 32.8
2017-Jun-27 15:13 217 4 gusting 9 32.8
2017-Jun-27 15:09 178 4 gusting 9 33.3
2017-Jun-27 15:02 191 4 gusting 7 33.3
2017-Jun-27 14:59 205 4 gusting 9 33.3
2017-Jun-27 14:52 182 4 gusting 11 33.3
2017-Jun-27 14:48 206 4 gusting 8 33.3
2017-Jun-27 14:44 217 5 gusting 8 33.3
2017-Jun-27 14:38 192 4 gusting 11 33.3
2017-Jun-27 14:34 165 4 gusting 11 33.9
2017-Jun-27 14:26 169 3 gusting 8 33.9
2017-Jun-27 14:24 194 4 gusting 10 33.9
2017-Jun-27 14:18 196 5 gusting 6 33.9
2017-Jun-27 14:12 183 5 gusting 9 33.9
2017-Jun-27 14:09 177 5 gusting 10 33.9
2017-Jun-27 14:02 195 5 gusting 13 34.4
2017-Jun-27 13:58 191 5 gusting 12 34.4
2017-Jun-27 13:54 178 6 gusting 12 34.4
2017-Jun-27 13:46 166 5 gusting 13 34.4
2017-Jun-27 13:44 158 5 gusting 13 34.4
2017-Jun-27 13:36 214 4 gusting 10 34.4
2017-Jun-27 13:33 203 5 gusting 10 34.4
2017-Jun-27 13:30 145 5 gusting 11 34.4
2017-Jun-27 13:24 175 5 gusting 10 34.4
2017-Jun-27 13:19 153 5 gusting 11 34.4
2017-Jun-27 13:12 173 4 gusting 11 35.6
2017-Jun-27 13:08 167 4 gusting 12 35.6
2017-Jun-27 13:04 163 4 gusting 12 35.0
2017-Jun-27 12:58 208 4 gusting 12 35.0
2017-Jun-27 12:54 214 4 gusting 11 35.6
2017-Jun-27 12:48 198 5 gusting 11 35.6
2017-Jun-27 12:42 130 5 gusting 10 35.6
2017-Jun-27 12:38 167 5 gusting 10 35.6
2017-Jun-27 12:32 129 5 gusting 9 35.6
2017-Jun-27 12:30 186 5 gusting 10 35.6
2017-Jun-27 12:25 156 5 gusting 9 35.6
2017-Jun-27 12:18 161 5 gusting 12 36.1
2017-Jun-27 12:14 196 5 gusting 12 36.1
2017-Jun-27 12:08 157 2 gusting 12 36.1
2017-Jun-27 12:04 191 3 gusting 8 36.1
2017-Jun-27 11:56 221 2 gusting 7 35.6
2017-Jun-27 11:54 196 3 gusting 8 36.1
2017-Jun-27 11:50 204 3 gusting 8 35.6
2017-Jun-27 11:42 199 4 gusting 9 35.6
2017-Jun-27 11:39 190 4 gusting 7 36.1
2017-Jun-27 11:32 169 3 gusting 6 36.1
2017-Jun-27 11:28 163 3 gusting 9 36.1
2017-Jun-27 11:24 219 3 gusting 9 36.1
2017-Jun-27 11:16 171 3 gusting 7 36.1
2017-Jun-27 11:14 155 3 gusting 7 36.1
2017-Jun-27 11:06 199 3 gusting 6 35.6
2017-Jun-27 11:03 202 2 gusting 9 36.1
2017-Jun-27 11:00 171 3 gusting 9 36.1
2017-Jun-27 10:54 211 2 gusting 6 35.6
2017-Jun-27 10:49 172 4 gusting 9 35.6
2017-Jun-27 10:45 211 3 gusting 6 36.1
2017-Jun-27 10:37 125 4 gusting 8 36.7
2017-Jun-27 10:33 157 3 gusting 7 37.2
2017-Jun-27 10:27 155 3 gusting 6 37.2
2017-Jun-27 10:23 192 0 gusting 3 37.2
2017-Jun-27 10:20 192 1 gusting 5 36.7
2017-Jun-27 10:12 229 1 gusting 6 36.7
2017-Jun-27 10:09 196 0 gusting 3 36.7
2017-Jun-27 10:05 146 0 gusting 4 36.1
2017-Jun-27 09:57 149 2 gusting 6 35.6
2017-Jun-27 09:55 184 2 gusting 5 35.6
2017-Jun-27 09:50 196 2 gusting 6 35.0
2017-Jun-27 09:44 175 2 gusting 6 35.0
2017-Jun-27 09:38 245 3 gusting 6 35.0
2017-Jun-27 09:32 221 3 gusting 5 34.4
2017-Jun-27 09:30 265 2 gusting 6 34.4
2017-Jun-27 09:25 269 2 gusting 5 33.9
2017-Jun-27 09:17 268 2 gusting 6 33.3
2017-Jun-27 09:13 258 2 gusting 6 33.3
2017-Jun-27 09:07 269 2 gusting 6 32.8
2017-Jun-27 09:04 330 4 gusting 7 33.3
2017-Jun-27 08:59 294 3 gusting 6 33.3
2017-Jun-27 08:52 265 3 gusting 9 33.3
2017-Jun-27 08:48 322 4 gusting 9 32.8
2017-Jun-27 08:42 319 3 gusting 9 32.8
2017-Jun-27 08:40 298 3 gusting 10 32.8
2017-Jun-27 08:34 249 3 gusting 9 32.2
2017-Jun-27 08:27 295 5 gusting 11 31.7
2017-Jun-27 08:25 322 5 gusting 11 31.7
2017-Jun-27 08:20 284 4 gusting 9 31.7
2017-Jun-27 08:14 323 5 gusting 11 31.7
2017-Jun-27 08:08 323 5 gusting 8 31.7
2017-Jun-27 08:04 273 6 gusting 10 31.1
2017-Jun-27 08:00 296 5 gusting 10 31.1
2017-Jun-27 07:52 311 3 gusting 10 31.1
2017-Jun-27 07:49 292 3 gusting 8 31.1
2017-Jun-27 07:43 273 5 gusting 10 30.6
2017-Jun-27 07:39 319 3 gusting 10 30.0
2017-Jun-27 07:35 304 6 gusting 11 30.6
2017-Jun-27 07:23 315 4 gusting 9 30.6
2017-Jun-27 07:19 317 4 gusting 8 30.0
2017-Jun-27 07:12 332 5 gusting 7 30.0
2017-Jun-27 07:10 280 4 gusting 10 30.0
2017-Jun-27 07:04 303 3 gusting 7 29.4
2017-Jun-27 06:59 338 4 gusting 10 29.4
2017-Jun-27 06:53 355 3 gusting 8 29.4
2017-Jun-27 06:49 319 5 gusting 8 28.9
2017-Jun-27 06:43 292 4 gusting 8 28.9
2017-Jun-27 06:37 273 4 gusting 8 28.9
2017-Jun-27 06:34 271 3 gusting 8 28.9
2017-Jun-27 06:28 290 3 gusting 6 28.3
2017-Jun-27 06:24 290 1 gusting 7 28.3
2017-Jun-27 06:18 284 2 gusting 7 28.3
2017-Jun-27 06:12 277 1 gusting 6 27.8
2017-Jun-27 06:08 279 1 gusting 6 27.8
2017-Jun-27 06:04 323 1 gusting 5 27.8
2017-Jun-27 05:55 304 2 gusting 5 27.2
2017-Jun-27 05:54 306 2 gusting 5 27.2
2017-Jun-27 05:49 269 0 gusting 2 26.7
2017-Jun-27 05:43 269 0 gusting 2 26.7
2017-Jun-27 05:39 269 0 gusting 2 26.7
2017-Jun-27 05:33 269 1 gusting 2 26.1
2017-Jun-27 05:29 269 1 gusting 6 26.1
2017-Jun-27 05:24 269 3 gusting 5 26.1
2017-Jun-27 05:17 269 3 gusting 6 25.6
2017-Jun-27 05:13 276 3 gusting 6 25.6
2017-Jun-27 05:07 267 2 gusting 6 25.6
2017-Jun-27 05:04 263 1 gusting 6 25.6
2017-Jun-27 04:59 245 0 gusting 3 25.6
2017-Jun-27 04:52 246 0 gusting 3 25.6
2017-Jun-27 04:48 269 25.6
2017-Jun-27 04:42 338 25.0
2017-Jun-27 04:39 338 25.0
2017-Jun-27 04:35 338 24.4
2017-Jun-27 04:25 338 24.4
2017-Jun-27 04:24 338 24.4
2017-Jun-27 04:19 338 23.9
2017-Jun-27 04:13 338 23.9
2017-Jun-27 04:09 338 23.9
2017-Jun-27 04:03 338 23.3
2017-Jun-27 03:59 338 23.3
2017-Jun-27 03:53 334 2 gusting 5 23.3
2017-Jun-27 03:49 333 23.3
2017-Jun-27 03:44 324 2 gusting 5 23.3
2017-Jun-27 03:36 304 2 gusting 6 22.8
2017-Jun-27 03:33 294 2 gusting 6 23.3
2017-Jun-27 03:29 290 1 gusting 4 23.3
2017-Jun-27 03:23 302 0 gusting 4 23.3
2017-Jun-27 03:19 298 0 gusting 3 23.3
2017-Jun-27 03:14 295 0 gusting 3 23.3
2017-Jun-27 03:07 295 23.3
2017-Jun-27 03:05 292 23.3
2017-Jun-27 02:54 307 23.9
2017-Jun-27 02:48 306 23.9
2017-Jun-27 02:42 306 23.9
2017-Jun-27 02:40 307 23.9
2017-Jun-27 02:32 307 23.9
2017-Jun-27 02:29 307 23.9
2017-Jun-27 02:23 307 24.4
2017-Jun-27 02:19 307 23.9
2017-Jun-27 02:15 307 24.4
2017-Jun-27 02:07 307 23.9
2017-Jun-27 02:04 307 24.4
2017-Jun-27 01:59 307 24.4
2017-Jun-27 01:52 307 24.4
2017-Jun-27 01:49 307 24.4
2017-Jun-27 01:42 309 24.4
2017-Jun-27 01:39 309 24.4
2017-Jun-27 01:32 309 24.4
2017-Jun-27 01:29 309 24.4
2017-Jun-27 01:22 309 24.4
2017-Jun-27 01:18 309 24.4
2017-Jun-27 01:14 309 24.4
2017-Jun-27 01:07 309 24.4
2017-Jun-27 01:04 309 25.0
2017-Jun-27 00:55 311 25.0
2017-Jun-27 00:54 312 25.0
2017-Jun-27 00:46 314 25.0
2017-Jun-27 00:43 314 25.0
2017-Jun-27 00:38 314 1 gusting 3 25.0
2017-Jun-27 00:34 314 1 gusting 3 25.0
2017-Jun-27 00:28 313 0 gusting 3 25.6
2017-Jun-27 00:22 313 25.0
2017-Jun-27 00:19 313 25.6
2017-Jun-27 00:12 313 25.6
2017-Jun-27 00:09 313 25.6
2017-Jun-27 00:04 313 25.6
2017-Jun-26 23:57 313 25.6
2017-Jun-26 23:53 315 0 25.6
2017-Jun-26 23:49 315 25.6
2017-Jun-26 23:43 315 1 gusting 4 26.1
2017-Jun-26 23:37 316 0 gusting 4 25.6
2017-Jun-26 23:34 316 1 gusting 4 26.1
2017-Jun-26 23:29 301 1 gusting 3 26.1
2017-Jun-26 23:22 301 1 gusting 5 26.1
2017-Jun-26 23:19 294 1 gusting 5 26.1
2017-Jun-26 23:12 265 1 gusting 3 26.1
2017-Jun-26 23:09 265 1 gusting 6 26.1
2017-Jun-26 23:02 263 1 gusting 6 26.7
2017-Jun-26 22:59 263 1 gusting 5 26.7
2017-Jun-26 22:54 309 0 gusting 6 26.7
2017-Jun-26 22:48 242 0 gusting 6 26.7
2017-Jun-26 22:44 226 0 gusting 5 26.7
2017-Jun-26 22:38 223 26.7
2017-Jun-26 22:34 224 0 gusting 6 27.2
2017-Jun-26 22:23 324 0 gusting 3 27.2
2017-Jun-26 22:18 325 0 gusting 2 27.2
2017-Jun-26 22:12 324 0 gusting 8 26.7
2017-Jun-26 22:08 324 1 gusting 10 26.7
2017-Jun-26 22:02 327 0 gusting 10 26.7
2017-Jun-26 21:59 323 5 gusting 11 26.7
2017-Jun-26 21:54 314 6 gusting 9 26.7
2017-Jun-26 21:48 335 6 gusting 10 26.7
2017-Jun-26 21:44 305 5 gusting 10 26.7
2017-Jun-26 21:38 298 6 gusting 10 26.1
2017-Jun-26 21:34 313 5 gusting 9 26.7
2017-Jun-26 21:28 315 2 gusting 7 27.2
2017-Jun-26 21:22 271 0 gusting 3 27.8
2017-Jun-26 21:19 269 0 gusting 1 27.8
2017-Jun-26 21:14 268 1 gusting 3 27.8
2017-Jun-26 21:08 268 1 gusting 3 27.8
2017-Jun-26 21:04 267 0 gusting 3 27.8
2017-Jun-26 20:54 265 28.3
2017-Jun-26 20:49 263 28.3
2017-Jun-26 20:42 177 28.3
2017-Jun-26 20:39 176 28.3
2017-Jun-26 20:32 175 28.3
2017-Jun-26 20:28 175 28.3
2017-Jun-26 20:23 175 28.3
2017-Jun-26 20:19 175 28.3
2017-Jun-26 20:14 175 28.3
2017-Jun-26 20:08 175 28.3
2017-Jun-26 20:04 175 28.3
2017-Jun-26 19:53 175 28.3
2017-Jun-26 19:48 176 28.3
2017-Jun-26 19:44 176 28.3
2017-Jun-26 19:38 176 28.3
2017-Jun-26 19:32 176 28.3
2017-Jun-26 19:29 176 28.3
2017-Jun-26 19:22 176 28.3
2017-Jun-26 19:18 176 28.3
2017-Jun-26 19:14 176 28.3
2017-Jun-26 19:07 177 28.3
2017-Jun-26 19:03 178 28.9
2017-Jun-26 18:54 178 28.9
2017-Jun-26 18:49 180 28.9
2017-Jun-26 18:42 180 28.9
2017-Jun-26 18:39 180 28.9
2017-Jun-26 18:34 181 28.9
2017-Jun-26 18:30 181 28.9
2017-Jun-26 18:22 181 28.9
2017-Jun-26 18:19 181 28.9
2017-Jun-26 18:12 182 29.4
2017-Jun-26 18:08 182 29.4
2017-Jun-26 18:04 182 29.4
2017-Jun-26 17:59 182 28.9
2017-Jun-26 17:54 182 29.4
2017-Jun-26 17:46 182 29.4
2017-Jun-26 17:43 182 30.0
2017-Jun-26 17:38 179 0 gusting 3 30.0
2017-Jun-26 17:34 183 30.0
2017-Jun-26 17:27 175 0 gusting 0 30.6
2017-Jun-26 17:14 198 1 gusting 6 30.6
2017-Jun-26 16:59 194 1 gusting 6 31.1
2017-Jun-26 16:44 186 1 gusting 6 31.1
2017-Jun-26 16:29 158 1 gusting 6 31.7
2017-Jun-26 16:14 196 3 gusting 6 32.2
2017-Jun-26 15:59 165 2 gusting 8 31.7
2017-Jun-26 15:52 148 3 gusting 9 31.7
2017-Jun-26 15:49 147 3 gusting 8 31.7
2017-Jun-26 15:45 161 2 gusting 9 31.7
2017-Jun-26 15:39 161 3 gusting 9 31.7
2017-Jun-26 15:34 167 4 gusting 8 31.7
2017-Jun-26 15:30 140 4 gusting 8 31.7
2017-Jun-26 15:24 160 3 gusting 8 31.7
2017-Jun-26 15:20 170 3 gusting 10 32.2
2017-Jun-26 15:09 153 3 gusting 10 32.2
2017-Jun-26 15:04 187 3 gusting 9 32.2
2017-Jun-26 14:59 149 4 gusting 9 32.2
2017-Jun-26 14:54 175 4 gusting 9 32.2
2017-Jun-26 14:49 103 3 gusting 7 32.2
2017-Jun-26 14:44 184 4 gusting 8 32.2
2017-Jun-26 14:39 160 4 gusting 8 32.2
2017-Jun-26 14:34 197 4 gusting 9 32.2
2017-Jun-26 14:29 164 4 gusting 9 32.2
2017-Jun-26 14:24 178 4 gusting 8 32.2
2017-Jun-26 14:19 182 4 gusting 13 32.2
2017-Jun-26 14:14 188 4 gusting 13 32.2
2017-Jun-26 14:09 144 4 gusting 11 32.8
2017-Jun-26 14:04 187 5 gusting 9 32.8
2017-Jun-26 13:59 148 5 gusting 9 32.8
2017-Jun-26 13:54 196 4 gusting 9 32.8
2017-Jun-26 13:48 173 4 gusting 7 32.8
2017-Jun-26 13:44 144 4 gusting 7 32.8
2017-Jun-26 13:40 164 4 gusting 7 32.8
2017-Jun-26 13:34 217 5 gusting 10 32.8
2017-Jun-26 13:29 163 4 gusting 10 32.8
2017-Jun-26 13:24 173 4 gusting 10 32.8
2017-Jun-26 13:20 219 5 gusting 10 32.8
2017-Jun-26 13:14 194 4 gusting 10 32.8
2017-Jun-26 13:10 186 4 gusting 10 32.8
2017-Jun-26 13:04 200 4 gusting 8 32.8
2017-Jun-26 12:59 174 4 gusting 8 33.3
2017-Jun-26 12:53 217 4 gusting 9 33.3
2017-Jun-26 12:49 174 4 gusting 9 33.3
2017-Jun-26 12:43 190 4 gusting 10 33.3
2017-Jun-26 12:39 160 4 gusting 10 33.9
2017-Jun-26 12:33 164 3 gusting 9 33.9
2017-Jun-26 12:29 178 4 gusting 7 33.9
2017-Jun-26 12:23 134 4 gusting 8 33.9
2017-Jun-26 12:19 184 4 gusting 8 33.9
2017-Jun-26 12:13 160 4 gusting 8 33.9
2017-Jun-26 12:09 168 4 gusting 9 33.9
2017-Jun-26 12:04 163 4 gusting 9 33.9
2017-Jun-26 11:59 191 4 gusting 10 33.9
2017-Jun-26 11:54 219 4 gusting 10 33.9
2017-Jun-26 11:48 170 5 gusting 10 33.9
2017-Jun-26 11:44 166 5 gusting 10 33.3
2017-Jun-26 11:38 211 4 gusting 8 33.3
2017-Jun-26 11:34 174 4 gusting 8 33.9
2017-Jun-26 11:28 178 3 gusting 8 33.9
2017-Jun-26 11:24 179 3 gusting 7 33.9
2017-Jun-26 11:20 203 3 gusting 9 34.4
2017-Jun-26 11:13 184 3 gusting 9 33.9
2017-Jun-26 11:09 206 4 gusting 9 33.9
2017-Jun-26 11:03 167 4 gusting 9 34.4
2017-Jun-26 10:59 205 3 gusting 7 34.4
2017-Jun-26 10:53 149 3 gusting 8 33.9
2017-Jun-26 10:50 188 3 gusting 8 33.9
2017-Jun-26 10:43 161 3 gusting 7 33.9
2017-Jun-26 10:39 205 3 gusting 7 33.9
2017-Jun-26 10:33 207 3 gusting 6 34.4
2017-Jun-26 10:29 183 2 gusting 6 33.9
2017-Jun-26 10:23 224 3 gusting 8 33.9
2017-Jun-26 10:19 209 4 gusting 8 33.9
2017-Jun-26 10:13 212 4 gusting 8 33.9
2017-Jun-26 10:09 195 4 gusting 9 33.9
2017-Jun-26 10:05 216 4 gusting 9 33.9
2017-Jun-26 09:59 239 3 gusting 9 34.4
2017-Jun-26 09:55 167 3 gusting 8 33.9
2017-Jun-26 09:49 172 3 gusting 6 33.9
2017-Jun-26 09:44 156 3 gusting 7 33.9
2017-Jun-26 09:38 218 3 gusting 9 33.9
2017-Jun-26 09:34 205 3 gusting 9 33.9
2017-Jun-26 09:28 221 3 gusting 6 33.9
2017-Jun-26 09:24 182 3 gusting 9 33.9
2017-Jun-26 09:20 204 3 gusting 9 33.9
2017-Jun-26 09:13 182 3 gusting 9 33.3
2017-Jun-26 09:09 180 3 gusting 6 33.3
2017-Jun-26 09:03 165 3 gusting 6 33.3
2017-Jun-26 09:00 172 2 gusting 6 32.8
2017-Jun-26 08:53 208 4 gusting 8 33.3
2017-Jun-26 08:49 225 4 gusting 8 33.3
2017-Jun-26 08:44 160 4 gusting 7 32.8
2017-Jun-26 08:39 227 1 gusting 7 33.3
2017-Jun-26 08:33 241 2 gusting 6 33.3
2017-Jun-26 08:29 202 4 gusting 8 33.3
2017-Jun-26 08:23 228 2 gusting 8 33.3
2017-Jun-26 08:19 202 0 gusting 5 33.3
2017-Jun-26 08:13 202 1 gusting 5 32.8
2017-Jun-26 08:09 210 1 gusting 5 32.8
2017-Jun-26 08:03 212 0 gusting 5 32.8